EW7349 Weather Reports


Display with metric or nautical units.
time (UTC)temp
F
wind
direction
speed
MPH
gust
MPH
rain 1hr
in
rain 24hr
in
rain mn
in
humidity
%
barometer
mb
20221126221750 57 38 0.0 0.0 0.00 0.00 0.00 36 1018.0
20221126221251 58 38 0.0 0.0 0.00 0.00 0.00 35 1018.0
20221126220748 58 38 0.0 0.0 0.00 0.00 0.00 35 1018.0
20221126220250 58 38 0.0 0.0 0.00 0.00 0.00 35 1018.0
20221126215747 59 38 0.0 0.0 0.00 0.00 0.00 35 1018.0
20221126215522 60 38 0.0 0.0 0.00 0.00 0.00 34 1017.9
20221126215244 59 38 0.0 0.0 0.00 0.00 0.00 34 1017.9
20221126214245 60 38 0.0 0.0 0.00 0.00 0.00 35 1018.0
20221126213745 60 38 0.0 0.0 0.00 0.00 0.00 35 1018.0
20221126213246 61 38 0.0 1.0 0.00 0.00 0.00 35 1018.1
20221126212746 61 38 0.0 1.0 0.00 0.00 0.00 33 1018.0
20221126212245 61 38 0.0 1.0 0.00 0.00 0.00 33 1018.1
20221126211746 61 38 0.0 1.0 0.00 0.00 0.00 33 1018.2
20221126211246 61 38 0.0 1.0 0.00 0.00 0.00 32 1018.2
20221126210747 62 38 0.0 1.0 0.00 0.00 0.00 32 1018.2
20221126210246 62 38 0.0 1.0 0.00 0.00 0.00 32 1018.2
20221126205746 62 42 1.0 4.0 0.00 0.00 0.00 32 1018.1
20221126205244 62 310 1.0 5.0 0.00 0.00 0.00 33 1018.0
20221126204746 62 246 1.0 5.0 0.00 0.00 0.00 31 1018.2
20221126204246 62 247 0.0 2.0 0.00 0.00 0.00 33 1018.2
20221126203746 62 262 0.0 2.0 0.00 0.00 0.00 33 1018.2
20221126203246 61 269 1.0 2.0 0.00 0.00 0.00 32 1018.4
20221126203021 61 294 1.0 3.0 0.00 0.00 0.00 32 1018.5
20221126202244 61 274 1.0 3.0 0.00 0.00 0.00 33 1018.4
20221126201744 61 222 1.0 5.0 0.00 0.00 0.00 33 1018.4
20221126201247 62 59 2.0 7.0 0.00 0.00 0.00 32 1018.5
20221126200742 62 259 2.0 7.0 0.00 0.00 0.00 30 1018.6
20221126200244 62 263 2.0 8.0 0.00 0.00 0.00 32 1018.6
20221126195743 63 292 2.0 8.0 0.00 0.00 0.00 30 1018.7
20221126195244 63 321 2.0 7.0 0.00 0.00 0.00 29 1018.6
20221126194743 63 285 2.0 7.0 0.00 0.00 0.00 31 1018.5
20221126194241 64 302 2.0 6.0 0.00 0.00 0.00 30 1018.4
20221126194015 64 199 2.0 5.0 0.00 0.00 0.00 32 1018.4
20221126193242 64 248 2.0 6.0 0.00 0.00 0.00 30 1018.5
20221126192742 64 292 2.0 6.0 0.00 0.00 0.00 30 1018.6
20221126192243 64 284 2.0 7.0 0.00 0.00 0.00 30 1018.6
20221126191742 63 171 2.0 7.0 0.00 0.00 0.00 33 1018.7
20221126191236 63 247 2.0 6.0 0.00 0.00 0.00 30 1018.9
20221126190730 64 355 2.0 7.0 0.00 0.00 0.00 31 1019.1
20221126190226 63 315 2.0 7.0 0.00 0.00 0.00 32 1019.1
20221126185957 62 255 2.0 6.0 0.00 0.00 0.00 31 1019.1
20221126185224 63 327 3.0 8.0 0.00 0.00 0.00 31 1019.1
20221126184724 63 242 2.0 8.0 0.00 0.00 0.00 32 1019.0
20221126184226 63 336 2.0 5.0 0.00 0.00 0.00 34 1018.9
20221126183724 62 62 3.0 9.0 0.00 0.00 0.00 32 1019.0
20221126183224 62 173 3.0 9.0 0.00 0.00 0.00 32 1019.2
20221126182954 62 173 2.0 6.0 0.00 0.00 0.00 32 1019.2
20221126182222 63 255 2.0 6.0 0.00 0.00 0.00 32 1019.1
20221126181954 62 68 2.0 6.0 0.00 0.00 0.00 31 1019.2
20221126181223 62 25 2.0 6.0 0.00 0.00 0.00 31 1019.3
20221126180719 62 252 2.0 6.0 0.00 0.00 0.00 33 1019.2
20221126180219 63 276 2.0 6.0 0.00 0.00 0.00 32 1019.3
20221126175719 62 292 2.0 4.0 0.00 0.00 0.00 34 1019.4
20221126175448 62 5 2.0 4.0 0.00 0.00 0.00 31 1019.4
20221126174717 61 248 2.0 4.0 0.00 0.00 0.00 33 1019.4
20221126174447 61 289 2.0 4.0 0.00 0.00 0.00 32 1019.6
20221126173717 61 294 2.0 5.0 0.00 0.00 0.00 34 1019.7
20221126173212 61 257 2.0 5.0 0.00 0.00 0.00 32 1019.8
20221126172703 62 295 2.0 4.0 0.00 0.00 0.00 32 1019.8
20221126172156 61 170 2.0 4.0 0.00 0.00 0.00 35 1019.9
20221126171921 60 279 2.0 6.0 0.00 0.00 0.00 36 1020.0
20221126171145 60 240 2.0 6.0 0.00 0.00 0.00 36 1020.3
20221126170639 60 273 2.0 6.0 0.00 0.00 0.00 37 1020.4
20221126170133 59 293 2.0 6.0 0.00 0.00 0.00 37 1020.4
20221126165854 58 246 3.0 9.0 0.00 0.00 0.00 39 1020.7
20221126165728 60 281 2.0 7.0 0.00 0.00 0.00 40 1020.5
20221126164614 58 291 3.0 9.0 0.00 0.00 0.00 42 1020.8
20221126164110 58 270 2.0 6.0 0.00 0.00 0.00 41 1020.9
20221126163604 57 263 2.0 7.0 0.00 0.00 0.00 41 1020.9
20221126163058 57 329 2.0 7.0 0.00 0.00 0.00 41 1021.1
20221126162550 58 227 2.0 4.0 0.00 0.00 0.00 43 1021.1
20221126162317 57 317 2.0 4.0 0.00 0.00 0.00 43 1021.2
20221126161538 57 355 2.0 6.0 0.00 0.00 0.00 44 1021.2
20221126161305 56 34 2.0 8.0 0.00 0.00 0.00 45 1021.3
20221126160526 55 292 2.0 8.0 0.00 0.00 0.00 49 1021.5
20221126160021 55 290 2.0 6.0 0.00 0.00 0.00 48 1021.5
20221126155515 54 240 2.0 7.0 0.00 0.00 0.00 47 1021.5
20221126155008 54 278 2.0 7.0 0.00 0.00 0.00 47 1021.7
20221126154503 54 290 2.0 4.0 0.00 0.00 0.00 47 1021.8
20221126154228 53 294 2.0 4.0 0.00 0.00 0.00 48 1021.7
20221126153452 52 238 2.0 6.0 0.00 0.00 0.00 48 1021.8
20221126153217 52 278 2.0 6.0 0.00 0.00 0.00 49 1021.9
20221126152438 52 235 2.0 6.0 0.00 0.00 0.00 51 1021.8
20221126152203 51 267 2.0 6.0 0.00 0.00 0.00 52 1021.8
20221126151427 51 263 2.0 6.0 0.00 0.00 0.00 50 1021.8
20221126150921 51 246 2.0 6.0 0.00 0.00 0.00 52 1021.8
20221126150645 51 266 2.0 4.0 0.00 0.00 0.00 51 1021.9
20221126145909 51 296 1.0 3.0 0.00 0.00 0.00 52 1021.9
20221126145403 50 274 1.0 3.0 0.00 0.00 0.00 53 1021.8
20221126144859 49 275 1.0 3.0 0.00 0.00 0.00 54 1021.8
20221126144351 48 288 1.0 4.0 0.00 0.00 0.00 58 1021.8
20221126143844 47 290 2.0 4.0 0.00 0.01 0.00 58 1021.7
20221126143340 47 306 2.0 4.0 0.00 0.01 0.00 62 1021.7
20221126142833 47 309 2.0 4.0 0.00 0.01 0.00 63 1021.7
20221126142326 47 287 1.0 4.0 0.00 0.01 0.00 63 1021.7
20221126142054 46 262 2.0 4.0 0.00 0.01 0.00 63 1021.6
20221126141315 46 268 2.0 4.0 0.00 0.01 0.00 64 1021.5
20221126140808 45 273 2.0 3.0 0.00 0.01 0.00 67 1021.6
20221126140536 44 290 1.0 4.0 0.00 0.01 0.00 70 1021.6
20221126135756 43 294 1.0 4.0 0.00 0.01 0.00 73 1021.5
20221126135523 41 273 0.0 3.0 0.00 0.01 0.00 79 1021.5
20221126134745 39 226 0.0 0.0 0.00 0.01 0.00 84 1021.5
20221126134240 38 226 0.0 0.0 0.00 0.01 0.00 83 1021.5
20221126133733 38 226 0.0 1.0 0.00 0.01 0.00 82 1021.4
20221126133228 37 226 0.0 1.0 0.00 0.01 0.00 83 1021.4
20221126132959 37 226 0.0 1.0 0.00 0.01 0.00 83 1021.4
20221126132225 37 226 0.0 1.0 0.00 0.01 0.00 82 1021.4
20221126131729 36 226 1.0 2.0 0.00 0.01 0.00 82 1021.4
20221126131724 37 226 1.0 2.0 0.00 0.01 0.00 82 1021.5
20221126130725 36 226 0.0 2.0 0.00 0.01 0.00 82 1021.4
20221126130223 36 113 0.0 0.0 0.00 0.01 0.00 82 1021.3
20221126125725 36 113 0.0 0.0 0.00 0.01 0.00 81 1021.3
20221126125224 36 113 0.0 1.0 0.00 0.01 0.00 81 1021.3
20221126124723 36 113 0.0 2.0 0.00 0.01 0.00 80 1021.2
20221126124226 36 113 0.0 2.0 0.00 0.01 0.00 80 1021.1
20221126123726 36 90 0.0 0.0 0.00 0.01 0.00 79 1021.0
20221126123225 36 80 0.0 0.0 0.00 0.01 0.00 79 1021.1
20221126122726 37 80 0.0 0.0 0.00 0.01 0.00 79 1021.0
20221126122222 37 80 0.0 0.0 0.00 0.01 0.00 79 1021.0
20221126121724 37 80 0.0 0.0 0.00 0.01 0.00 79 1021.1
20221126121223 37 80 0.0 0.0 0.00 0.01 0.00 78 1021.0
20221126120724 37 80 0.0 0.0 0.00 0.01 0.00 78 1021.1
20221126120223 37 80 0.0 0.0 0.00 0.01 0.00 78 1021.0
20221126115720 37 80 0.0 0.0 0.00 0.01 0.00 78 1021.1
20221126115221 37 80 0.0 0.0 0.00 0.01 0.00 77 1021.0
20221126114721 37 80 0.0 0.0 0.00 0.01 0.00 77 1020.9
20221126114219 37 80 0.0 0.0 0.00 0.01 0.00 77 1020.8
20221126113720 37 80 0.0 0.0 0.00 0.02 0.00 77 1020.8
20221126113220 38 80 0.0 0.0 0.00 0.02 0.00 77 1020.8
20221126112721 38 80 0.0 0.0 0.00 0.02 0.00 76 1020.8
20221126112222 38 80 0.0 0.0 0.00 0.02 0.00 76 1020.7
20221126111950 38 80 0.0 0.0 0.00 0.02 0.00 75 1020.8
20221126111215 38 80 0.0 0.0 0.00 0.02 0.00 75 1020.8
20221126110716 38 80 0.0 0.0 0.00 0.02 0.00 75 1020.7
20221126110215 38 80 0.0 0.0 0.00 0.02 0.00 75 1020.7
20221126105715 38 80 0.0 0.0 0.00 0.02 0.00 75 1020.8
20221126105216 38 80 0.0 0.0 0.00 0.02 0.00 74 1020.8
20221126104717 38 80 0.0 0.0 0.00 0.02 0.00 74 1020.7
20221126104447 38 80 0.0 0.0 0.00 0.02 0.00 74 1020.5
20221126103717 38 80 0.0 1.0 0.00 0.02 0.00 74 1020.4
20221126103216 39 80 0.0 1.0 0.00 0.02 0.00 74 1020.3
20221126102949 39 80 0.0 0.0 0.00 0.02 0.00 74 1020.4
20221126102216 39 80 0.0 2.0 0.00 0.02 0.00 74 1020.4
20221126101717 39 80 0.0 2.0 0.00 0.02 0.00 74 1020.3
20221126101216 39 80 0.0 0.0 0.00 0.02 0.00 74 1020.3
20221126100717 39 80 0.0 1.0 0.00 0.02 0.00 74 1020.2
20221126100217 39 80 0.0 1.0 0.00 0.02 0.00 74 1020.1
20221126095947 39 80 0.0 1.0 0.00 0.02 0.00 74 1020.0
20221126095449 39 80 0.0 0.0 0.00 0.02 0.00 74 1020.0
20221126094716 39 80 0.0 1.0 0.00 0.02 0.00 73 1019.9
20221126094711 39 80 1.0 4.0 0.00 0.02 0.00 73 1019.8
20221126093702 39 80 1.0 4.0 0.00 0.02 0.00 73 1019.8
20221126093157 39 82 0.0 4.0 0.00 0.02 0.00 73 1019.8
20221126092650 39 88 0.0 1.0 0.00 0.02 0.00 73 1019.9
20221126092144 39 88 1.0 2.0 0.00 0.02 0.00 72 1019.9
20221126091638 39 88 1.0 2.0 0.00 0.02 0.00 72 1019.9
20221126091132 39 94 0.0 2.0 0.00 0.02 0.00 72 1019.9
20221126090626 39 98 0.0 0.0 0.00 0.02 0.00 71 1019.9
20221126090120 39 98 0.0 2.0 0.00 0.02 0.00 71 1019.9
20221126085613 40 98 0.0 2.0 0.00 0.02 0.00 71 1019.9
20221126085340 40 104 0.0 2.0 0.00 0.02 0.00 71 1019.7
20221126084601 40 104 0.0 1.0 0.00 0.02 0.00 70 1019.8
20221126084327 40 106 1.0 2.0 0.00 0.02 0.00 71 1019.7
20221126083550 40 106 1.0 2.0 0.00 0.02 0.00 71 1019.8
20221126083044 40 84 0.0 1.0 0.00 0.02 0.00 70 1019.9
20221126082538 40 84 0.0 0.0 0.00 0.02 0.00 69 1019.8
20221126082032 40 84 0.0 0.0 0.00 0.02 0.00 69 1019.6
20221126081526 40 84 0.0 3.0 0.00 0.02 0.00 69 1019.7
20221126081021 40 84 0.0 3.0 0.00 0.02 0.00 69 1019.6
20221126080744 40 59 1.0 2.0 0.00 0.02 0.00 69 1019.5
20221126080008 40 59 1.0 3.0 0.00 0.02 0.00 69 1019.4
20221126075501 41 42 0.0 3.0 0.00 0.02 0.00 69 1019.5
20221126074956 41 62 0.0 2.0 0.00 0.02 0.00 68 1019.6
20221126074449 41 61 1.0 2.0 0.00 0.02 0.00 68 1019.5
20221126073943 41 47 0.0 2.0 0.00 0.02 0.00 68 1019.5
20221126073709 41 42 0.0 0.0 0.00 0.02 0.00 68 1019.5
20221126072936 41 28 0.0 1.0 0.00 0.02 0.00 68 1019.5
20221126072433 41 40 0.0 2.0 0.00 0.02 0.00 68 1019.6
20221126071932 41 40 1.0 2.0 0.00 0.02 0.00 68 1019.6
20221126071431 41 40 1.0 3.0 0.00 0.02 0.00 68 1019.4
20221126070927 41 77 1.0 3.0 0.00 0.02 0.00 68 1019.3
20221126070702 41 74 0.0 2.0 0.00 0.02 0.00 67 1019.4
20221126065927 41 154 0.0 0.0 0.00 0.02 0.00 67 1019.4
20221126065428 41 154 1.0 2.0 0.00 0.02 0.00 67 1019.3
20221126064928 41 154 1.0 2.0 0.00 0.02 0.00 67 1019.3
20221126064427 41 154 0.0 2.0 0.00 0.02 0.00 66 1019.2
20221126064155 42 154 0.0 3.0 0.00 0.02 0.00 66 1019.1
20221126063422 42 154 1.0 3.0 0.00 0.02 0.00 66 1019.0
20221126062921 42 45 1.0 3.0 0.00 0.02 0.00 65 1018.9
20221126062421 42 25 0.0 3.0 0.00 0.02 0.00 65 1019.1
20221126062153 42 87 0.0 1.0 0.00 0.02 0.00 64 1019.2
20221126061422 42 91 0.0 0.0 0.00 0.02 0.00 64 1019.3
20221126060923 42 91 0.0 1.0 0.00 0.02 0.00 64 1019.3
20221126060423 42 91 0.0 1.0 0.00 0.02 0.00 63 1019.2
20221126055917 42 91 0.0 1.0 0.00 0.02 0.00 63 1019.2
20221126055413 42 91 0.0 1.0 0.00 0.02 0.00 63 1019.0
20221126054906 42 91 0.0 1.0 0.00 0.02 0.00 63 1019.0
20221126054359 42 91 0.0 1.0 0.00 0.02 0.00 64 1019.0
20221126053853 42 91 0.0 1.0 0.00 0.02 0.00 64 1018.9
20221126053347 42 91 0.0 1.0 0.00 0.02 0.00 64 1019.0
20221126052841 43 91 0.0 1.0 0.00 0.02 0.00 64 1018.9
20221126052606 43 90 0.0 1.0 0.00 0.02 0.00 64 1018.9
20221126051831 43 94 0.0 2.0 0.00 0.02 0.00 64 1018.7
20221126051323 43 37 1.0 2.0 0.00 0.02 0.00 64 1018.6
20221126050818 43 32 1.0 3.0 0.00 0.02 0.00 64 1018.4
20221126050542 43 50 1.0 3.0 0.00 0.02 0.00 64 1018.3
20221126045806 43 38 1.0 3.0 0.00 0.02 0.02 63 1018.2
20221126045259 44 41 1.0 2.0 0.00 0.02 0.02 62 1018.3
20221126044753 44 45 0.0 2.0 0.00 0.02 0.02 61 1018.4
20221126044248 44 114 0.0 1.0 0.00 0.02 0.02 60 1018.4
20221126043741 44 120 0.0 0.0 0.00 0.02 0.02 60 1018.4
20221126043237 44 120 0.0 0.0 0.00 0.02 0.02 60 1018.2
20221126042729 44 120 0.0 2.0 0.00 0.02 0.02 61 1018.1
20221126042223 44 120 0.0 3.0 0.00 0.02 0.02 61 1017.9
20221126041718 44 158 0.0 3.0 0.00 0.02 0.02 61 1017.8
20221126041211 44 138 0.0 2.0 0.00 0.02 0.02 62 1017.8
20221126040705 44 138 1.0 2.0 0.00 0.02 0.02 62 1017.8
20221126040200 44 155 1.0 7.0 0.00 0.02 0.02 63 1017.8
20221126035653 44 111 1.0 7.0 0.00 0.02 0.02 64 1017.9
20221126035147 44 113 2.0 6.0 0.00 0.02 0.02 64 1017.7
20221126034642 44 110 2.0 6.0 0.00 0.02 0.02 64 1017.6
20221126034136 43 56 1.0 4.0 0.00 0.02 0.02 65 1017.6
20221126033629 43 70 1.0 4.0 0.00 0.02 0.02 65 1017.5
20221126033124 43 17 0.0 2.0 0.00 0.02 0.02 65 1017.5
20221126032617 44 46 1.0 3.0 0.00 0.02 0.02 65 1017.4
20221126032112 44 20 1.0 3.0 0.00 0.02 0.02 65 1017.4
20221126031605 44 30 1.0 3.0 0.00 0.02 0.02 65 1017.3
20221126031059 44 29 1.0 3.0 0.00 0.02 0.02 65 1017.4
20221126030553 44 15 1.0 2.0 0.00 0.02 0.02 64 1017.5
20221126030047 45 31 1.0 2.0 0.00 0.02 0.02 64 1017.5
20221126025541 45 13 1.0 3.0 0.00 0.02 0.02 63 1017.6
20221126025307 45 46 1.0 4.0 0.00 0.02 0.02 63 1017.6
20221126024528 45 20 1.0 4.0 0.00 0.02 0.02 63 1017.6
20221126024024 45 45 0.0 2.0 0.00 0.02 0.02 63 1017.5
20221126023517 46 44 1.0 3.0 0.00 0.02 0.02 62 1017.5
20221126023011 46 44 1.0 3.0 0.00 0.02 0.02 62 1017.3
20221126022507 46 42 0.0 2.0 0.00 0.02 0.02 61 1017.3
20221126021959 46 61 0.0 1.0 0.00 0.02 0.02 61 1017.3
20221126021454 47 65 1.0 2.0 0.00 0.02 0.02 61 1017.3
20221126020947 47 65 1.0 2.0 0.00 0.02 0.02 60 1017.3
20221126020440 47 88 0.0 2.0 0.00 0.02 0.02 60 1017.3
20221126015936 47 17 0.0 2.0 0.00 0.02 0.02 60 1017.2
20221126015429 47 62 0.0 1.0 0.00 0.02 0.02 59 1017.1
20221126014924 47 109 0.0 0.0 0.00 0.02 0.02 59 1017.0
20221126014418 47 109 0.0 0.0 0.00 0.02 0.02 59 1016.9
20221126013911 47 109 0.0 2.0 0.00 0.02 0.02 59 1016.9
20221126013406 47 109 0.0 2.0 0.00 0.02 0.02 59 1016.8
20221126012859 47 40 0.0 1.0 0.00 0.02 0.02 59 1016.8
20221126012354 47 29 0.0 2.0 0.00 0.02 0.02 59 1016.7
20221126011848 48 53 0.0 1.0 0.00 0.02 0.02 59 1016.6
20221126011344 48 23 0.0 2.0 0.00 0.02 0.02 59 1016.5
20221126011338 48 23 1.0 2.0 0.00 0.02 0.02 59 1016.4
20221126010330 48 355 1.0 2.0 0.00 0.02 0.02 58 1016.4
20221126005829 49 355 1.0 3.0 0.00 0.02 0.02 57 1016.3
20221126005328 49 20 0.0 3.0 0.00 0.02 0.02 57 1016.4
20221126004829 49 18 0.0 2.0 0.00 0.02 0.02 57 1016.5
20221126004327 49 28 1.0 2.0 0.00 0.02 0.02 56 1016.5
20221126003829 50 30 1.0 2.0 0.00 0.02 0.02 56 1016.6
20221126003556 50 102 1.0 2.0 0.00 0.02 0.02 56 1016.5
20221126002825 50 81 0.0 2.0 0.00 0.02 0.02 55 1016.5
20221126002322 50 86 1.0 7.0 0.00 0.02 0.02 55 1016.4
20221126001820 50 76 1.0 7.0 0.00 0.02 0.02 54 1016.3
20221126001318 51 22 1.0 2.0 0.00 0.02 0.02 54 1016.4
20221126000817 51 26 1.0 2.0 0.00 0.02 0.02 54 1016.3
20221126000319 51 73 1.0 3.0 0.00 0.02 0.02 54 1016.0
20221126000045 51 35 2.0 3.0 0.00 0.02 0.02 54 1015.9
20221125235545 51 67 1.0 3.0 0.00 0.02 0.02 53 1015.7
20221125234813 51 40 1.0 4.0 0.00 0.02 0.02 53 1015.7
20221125234309 52 61 1.0 4.0 0.00 0.02 0.02 53 1015.5
20221125233809 52 30 1.0 5.0 0.00 0.02 0.02 53 1015.4
20221125233310 52 117 2.0 5.0 0.00 0.02 0.02 53 1015.4
20221125232806 52 77 2.0 4.0 0.00 0.02 0.02 52 1015.4
20221125232308 53 355 2.0 4.0 0.00 0.02 0.02 53 1015.2
20221125231803 53 99 2.0 10.0 0.00 0.02 0.02 53 1015.1
20221125231256 53 54 2.0 10.0 0.00 0.02 0.02 53 1014.9
20221125230757 53 48 2.0 7.0 0.00 0.02 0.02 54 1014.9
20221125230255 53 355 2.0 7.0 0.00 0.02 0.02 54 1014.9
20221125225756 53 19 2.0 5.0 0.00 0.02 0.02 55 1014.9
20221125225254 54 24 2.0 6.0 0.00 0.02 0.02 54 1014.7
20221125224757 54 50 2.0 6.0 0.00 0.02 0.02 55 1014.6
20221125224254 54 65 2.0 6.0 0.00 0.02 0.02 54 1014.5
20221125224029 55 79 2.0 6.0 0.00 0.02 0.02 53 1014.5
20221125223255 55 15 1.0 4.0 0.00 0.02 0.02 52 1014.5
20221125222758 56 61 1.0 3.0 0.00 0.02 0.02 51 1014.4